< < Back
Terminal Aerodrome Forecast


Current Version              Previous Versions:   1  2  3  4  5  6  7  8  9  

Terminal Aerodrome Forecast

930
FTUS42 KFFC 260524
TAFFTY
TAF
KFTY 260524Z 2606/2706 24005KT P6SM -RA SCT060 OVC090
     FM260900 26005KT P6SM -RA BKN035 OVC060
     FM261200 30006KT P6SM OVC050
     FM261500 30009KT P6SM SCT060
     FM262100 26007KT P6SM SCT250
     FM270300 24006KT P6SM BKN060=

Latest METAR

288
SAUS70 KWBC 261400 RRK
MTRFTY
METAR KFTY 261353Z 29011G16KT 10SM CLR 07/M01 A3008 RMK AO2 SLP185
T00671006


USA.gov is the U.S. government's official web portal to all federal, state and local government web resources and services.